This is the latest recevied weather packets stored in our database for station/object CQ0XBF-11. If no packets are shown the sender has not sent any weather packets the latest 1 day(s).
| Time | Temp. | Humidity | Pressure | Rain* | Wind** | Luminosity | Snow |
|---|---|---|---|---|---|---|---|
| 1778061058 | 18.89° C | 52% | - | 0 mm | - | - | - |
| 1778060900 | 18.33° C | 51% | - | 0 mm | - | - | - |
| 1778060657 | 18.89° C | 52% | - | 0 mm | - | - | - |
| 1778060414 | 18.33° C | 53% | - | 0 mm | - | - | - |
| 1778060171 | 17.78° C | 56% | - | 0 mm | - | - | - |
| 1778059968 | 17.22° C | 56% | - | 0 mm | - | - | - |
| 1778059928 | 17.22° C | 56% | - | 0 mm | - | - | - |
| 1778059682 | 17.78° C | 57% | - | 0 mm | - | - | - |
| 1778059319 | 17.22° C | 59% | - | 0 mm | - | - | - |
| 1778058953 | 17.22° C | 63% | - | 0 mm | - | - | - |
| 1778058893 | 17.22° C | 62% | - | 0 mm | - | - | - |
| 1778058831 | 17.22° C | 62% | - | 0 mm | - | - | - |
| 1778058588 | 16.67° C | 61% | - | 0 mm | - | - | - |
| 1778058467 | 17.22° C | 62% | - | 0 mm | - | - | - |
| 1778058125 | 16.67° C | 63% | - | 0 mm | - | - | - |
| 1778057978 | 16.67° C | 63% | - | 0 mm | - | - | - |
| 1778057857 | 16.67° C | 63% | - | 0 mm | - | - | - |
| 1778057736 | 16.67° C | 65% | - | 0 mm | - | - | - |
| 1778057614 | 16.11° C | 66% | - | 0 mm | - | - | - |
| 1778057493 | 16.11° C | 66% | - | 0 mm | - | - | - |
| 1778057128 | 15.56° C | 67% | - | 0 mm | - | - | - |
| 1778057006 | 15.56° C | 66% | - | 0 mm | - | - | - |
| 1778056886 | 16.11° C | 66% | - | 0 mm | - | - | - |
| 1778056520 | 15.56° C | 66% | - | 0 mm | - | - | - |
| 1778056277 | 15.56° C | 65% | - | 0 mm | - | - | - |
* Rain since midnight (hover to see other rain measurements)
** Current wind speed in m/s (hover to see current wind gust speed)